Regional Weather Roundup
Issued by NWS

Home | Current Version | Previous Version | Text Only | Print | Product List | Glossary Off
Versions: 1 2 3 4 5 6 7 8 9 10 11 12 13 14 15 16 17 18 19 20 21 22 23 24 25 26 27 28 29 30 31 32 33 34 35 36 37 38 39 40 41 42 43 44 45 46 47 48 49 50

000
ASUS43 KIND 240409
RWRIN

WEATHER ROUNDUP FOR INDIANA
NATIONAL WEATHER SERVICE INDIANAPOLIS IN
1200 AM EDT SUN MAY 24 2015

NOTE: "FAIR" INDICATES FEW OR NO CLOUDS BELOW 12,000 FEET WITH NO
SIGNIFICANT WEATHER AND/OR OBSTRUCTIONS TO VISIBILITY.

* - STATION DOES NOT REPORT WEATHER SUCH AS PRECIPITATION OR FOG.

+ - STATION NOT QUALITY CONTROLLED BY THE NATIONAL WEATHER SERVICE.
    USE DATA WITH CAUTION...ESPECIALLY DEWPOINT AND RELATIVE
    HUMIDITY OBSERVATIONS.

INZ001>003-010>013-019-020-240500-
NORTHWEST INDIANA

CITY           SKY/WX    TMP DP  RH WIND       PRES   REMARKS
GARY /AIRPORT/ CLEAR     69  45  41 S5        30.21F
KNOX *+        PTCLDY    59  45  58 S7        30.23S
LA PORTE +     PTCLDY    64  47  55 CALM      30.24S
MICHIGAN CITY+ CLEAR     57  48  72 CALM      30.23S
MONTICELLO +   PTCLDY    63  49  61 CALM      30.23S
RENSSELAER +   PTCLDY    64  45  48 CALM      30.23S
VALPARAISO     PTCLDY    66  44  45 CALM      30.23S

$$

LMZ046-743>745-240500-
SOUTHERN LAKE MICHIGAN

STATION/POSITION TIME  TEMP    WIND        PRES    WAVE
                       AIR SEA DIR/SP/G            HT
                 (UTC) (F)     (DEG/KT/KT) (MB)    (FT)
BURNS HARBOR     0400   69     190/  7/ 10 1023.7R
MICHIGAN CITY    0400   71     150/  8/ 11   N/A
5NW MICH CITY    0400   61 53  190/  4/  6   N/A     0

$$

INZ004-005-014>016-021>024-240500-
NORTH CENTRAL INDIANA

CITY           SKY/WX    TMP DP  RH WIND       PRES   REMARKS
GOSHEN         CLEAR     59  50  72 CALM      30.24S
LOGANSPORT +   PTCLDY    61  37  41 S5        30.26S
PERU/GRISSOM   PTCLDY    63  44  48 S6        30.24S
ROCHESTER +    PTCLDY    68  45  42 S3        30.25S
SOUTH BEND     CLEAR     61  47  59 CALM      30.24S
WARSAW +       CLEAR     59  48  67 CALM      30.25S

$$

INZ006>009-017-018-025>027-240500-
NORTHEAST INDIANA

CITY           SKY/WX    TMP DP  RH WIND       PRES   REMARKS
ANGOLA *+      CLEAR     57  52  82 CALM      30.26S
AUBURN +       CLEAR     59  46  63 CALM      30.27S
FORT WAYNE     PTCLDY    62  49  62 S5        30.27S
HUNTINGTON +   PTCLDY    58  49  74 CALM      30.26S

$$

INZ028-029-035-036-043>045-051>053-240500-
WEST CENTRAL INDIANA

CITY           SKY/WX    TMP DP  RH WIND       PRES   REMARKS
CRAWFORDSVL +  MOCLDY    61  41  48 SE5       30.24F
GREENCASTLE +  CLOUDY    63  43  48 CALM      30.25F
LAFAYETTE      MOCLDY    58  48  69 E3        30.23S
TERRE HAUTE    MOCLDY    61  51  70 E3        30.23F

$$

INZ030>032-037>040-046>048-054>057-064-065-240500-
CENTRAL INDIANA

CITY           SKY/WX    TMP DP  RH WIND       PRES   REMARKS
CP ATTERBURY + PTCLDY    54  52  94 CALM      30.26S
FISHERS *+     PTCLDY    57  50  77 SE3       30.26F
FRANKFORT +    PTCLDY    62  46  56 SE5       30.27S
GREENWOOD *+   PTCLDY    66  43  42 SE3       30.26F
INDIANAPOLIS   MOCLDY    67  45  45 E5        30.24S
-EAGLE CREEK   PTCLDY    62  48  60 CALM      30.25S
KOKOMO *+      PTCLDY    61  45  55 S5        30.26S
MARION +       PTCLDY    61  45  56 CALM      30.27F
MT COMFORT *+  PTCLDY    61  36  39 SE3       30.27S
SHELBYVILLE    PTCLDY    66  47  50 SE7       30.26S
ZIONSVILLE +   PTCLDY    60  42  51 CALM      30.26F

$$

INZ033-034-041-042-049-050-058-059-240500-
EAST CENTRAL INDIANA

CITY           SKY/WX    TMP DP  RH WIND       PRES   REMARKS
MUNCIE         MOCLDY    66  45  46 S5        30.27S

$$

INZ060-061-067>069-081>083-085>088-240500-
SOUTHWEST INDIANA

CITY           SKY/WX    TMP DP  RH WIND       PRES   REMARKS
EVANSVILLE     MOCLDY    65  53  65 CALM      30.22S
HUNTINGBURG *+ MOCLDY    64  48  55 SE5       30.24S
WASHINGTON +   MOCLDY    62  50  66 CALM      30.23S

$$

INZ062-063-066-070>080-084-089>092-240500-
SOUTH CENTRAL AND SOUTHEAST INDIANA

CITY           SKY/WX    TMP DP  RH WIND       PRES   REMARKS
BLOOMINGTON    MOCLDY    59  52  77 CALM      30.25S
MADISON *+     MOCLDY    61  45  55 CALM      30.28F
NORTH VERNON + MOCLDY    61  50  67 E3        30.27F
SEYMOUR +      MOCLDY    63  48  59 CALM      30.25F

$$



USA.gov is the U.S. government's official web portal to all federal, state and local government web resources and services.